TimeCDT,TemperatureF,Dew PointF,Humidity,Sea Level PressureIn,VisibilityMPH,Wind Direction,Wind SpeedMPH,Gust SpeedMPH,PrecipitationIn,Events,Conditions,WindDirDegrees,DateUTC
12:15 AM,75.2,64.4,69,29.98,10.0,SSW,3.5,-,N/A,,Clear,200,2013-06-14 05:15:00
12:35 AM,75.2,64.4,69,29.99,10.0,SW,4.6,-,N/A,,Clear,220,2013-06-14 05:35:00
12:55 AM,75.2,64.4,69,29.99,10.0,SW,3.5,-,N/A,,Clear,230,2013-06-14 05:55:00
1:15 AM,73.4,64.4,73,29.99,10.0,Calm,Calm,-,N/A,,Clear,0,2013-06-14 06:15:00
1:35 AM,73.4,64.4,73,29.99,10.0,Calm,Calm,-,N/A,,Clear,0,2013-06-14 06:35:00
1:55 AM,73.4,64.4,73,29.99,10.0,Calm,Calm,-,N/A,,Clear,0,2013-06-14 06:55:00
2:15 AM,73.4,64.4,73,29.98,10.0,Calm,Calm,-,N/A,,Clear,0,2013-06-14 07:15:00
2:35 AM,73.4,64.4,73,29.98,10.0,Calm,Calm,-,N/A,,Clear,0,2013-06-14 07:35:00
2:55 AM,73.4,64.4,73,29.98,10.0,Calm,Calm,-,N/A,,Clear,0,2013-06-14 07:55:00
3:15 AM,73.4,64.4,73,29.97,10.0,South,3.5,-,N/A,,Clear,170,2013-06-14 08:15:00
3:35 AM,73.4,64.4,73,29.97,10.0,SW,3.5,-,N/A,,Clear,220,2013-06-14 08:35:00
3:55 AM,71.6,64.4,78,29.97,10.0,SSW,3.5,-,N/A,,Clear,210,2013-06-14 08:55:00
4:15 AM,71.6,64.4,78,29.97,10.0,Calm,Calm,-,N/A,,Clear,0,2013-06-14 09:15:00
4:35 AM,71.6,64.4,78,29.98,10.0,SSW,3.5,-,N/A,,Clear,210,2013-06-14 09:35:00
4:55 AM,71.6,64.4,78,29.98,10.0,Calm,Calm,-,N/A,,Clear,0,2013-06-14 09:55:00
5:15 AM,71.6,64.4,78,29.98,10.0,SSW,4.6,-,N/A,,Clear,210,2013-06-14 10:15:00
5:35 AM,69.8,64.4,83,29.99,10.0,Calm,Calm,-,N/A,,Clear,0,2013-06-14 10:35:00
5:55 AM,69.8,64.4,83,29.99,10.0,SW,4.6,-,N/A,,Clear,220,2013-06-14 10:55:00
6:15 AM,69.8,64.4,83,29.99,10.0,SW,3.5,-,N/A,,Clear,220,2013-06-14 11:15:00
6:35 AM,69.8,64.4,83,30.00,10.0,SW,3.5,-,N/A,,Clear,220,2013-06-14 11:35:00
6:55 AM,71.6,64.4,78,30.00,10.0,SW,3.5,-,N/A,,Clear,220,2013-06-14 11:55:00
7:15 AM,71.6,64.4,78,30.00,10.0,SSW,4.6,-,N/A,,Clear,210,2013-06-14 12:15:00
7:35 AM,73.4,66.2,78,30.01,10.0,SSW,3.5,-,N/A,,Clear,210,2013-06-14 12:35:00
7:55 AM,75.2,66.2,73,30.01,10.0,SSW,3.5,-,N/A,,Clear,210,2013-06-14 12:55:00
8:15 AM,75.2,66.2,73,30.01,10.0,SW,5.8,-,N/A,,Clear,220,2013-06-14 13:15:00
8:35 AM,77.0,68.0,74,30.02,10.0,South,4.6,-,N/A,,Clear,190,2013-06-14 13:35:00
8:55 AM,78.8,69.8,74,30.02,10.0,SSW,4.6,-,N/A,,Clear,200,2013-06-14 13:55:00
9:15 AM,82.4,69.8,66,30.02,10.0,WSW,5.8,-,N/A,,Clear,240,2013-06-14 14:15:00
9:35 AM,82.4,69.8,66,30.02,10.0,SW,5.8,-,N/A,,Clear,220,2013-06-14 14:35:00
9:55 AM,84.2,69.8,62,30.01,10.0,SSW,8.1,-,N/A,,Clear,210,2013-06-14 14:55:00
10:15 AM,84.2,71.6,66,30.00,10.0,West,5.8,-,N/A,,Clear,280,2013-06-14 15:15:00
10:35 AM,86.0,71.6,62,30.00,10.0,West,6.9,-,N/A,,Clear,280,2013-06-14 15:35:00
10:55 AM,87.8,71.6,58,30.00,10.0,SE,6.9,-,N/A,,Clear,130,2013-06-14 15:55:00
11:15 AM,89.6,69.8,52,30.01,10.0,South,6.9,-,N/A,,Clear,170,2013-06-14 16:15:00
11:35 AM,91.4,71.6,52,30.01,10.0,ESE,3.5,-,N/A,,Clear,120,2013-06-14 16:35:00
11:55 AM,89.6,69.8,52,29.99,10.0,West,6.9,-,N/A,,Partly Cloudy,260,2013-06-14 16:55:00
12:15 PM,91.4,69.8,49,29.99,10.0,SW,9.2,-,N/A,,Scattered Clouds,220,2013-06-14 17:15:00
12:35 PM,91.4,69.8,49,29.98,10.0,WSW,4.6,-,N/A,,Mostly Cloudy,250,2013-06-14 17:35:00
12:55 PM,93.2,69.8,46,29.98,10.0,South,11.5,-,N/A,,Scattered Clouds,180,2013-06-14 17:55:00
1:15 PM,93.2,69.8,46,29.97,10.0,South,10.4,-,N/A,,Scattered Clouds,190,2013-06-14 18:15:00
1:35 PM,93.2,69.8,46,29.97,10.0,SSE,8.1,-,N/A,,Mostly Cloudy,160,2013-06-14 18:35:00
1:55 PM,93.2,69.8,46,29.97,10.0,SSW,8.1,-,N/A,,Scattered Clouds,200,2013-06-14 18:55:00
2:15 PM,93.2,69.8,46,29.96,10.0,South,11.5,-,N/A,,Partly Cloudy,190,2013-06-14 19:15:00
2:35 PM,93.2,68.0,44,29.96,10.0,South,8.1,-,N/A,,Partly Cloudy,180,2013-06-14 19:35:00
2:55 PM,95.0,69.8,44,29.95,10.0,SSE,9.2,18.4,N/A,,Partly Cloudy,150,2013-06-14 19:55:00
3:15 PM,96.8,68.0,39,29.95,10.0,SE,6.9,20.7,N/A,,Partly Cloudy,140,2013-06-14 20:15:00
3:35 PM,96.8,66.2,37,29.94,10.0,SSW,8.1,16.1,N/A,,Clear,210,2013-06-14 20:35:00
3:55 PM,95.0,66.2,39,29.94,10.0,South,5.8,-,N/A,,Partly Cloudy,170,2013-06-14 20:55:00
4:15 PM,98.6,66.2,35,29.93,10.0,SSW,5.8,-,N/A,,Partly Cloudy,210,2013-06-14 21:15:00
4:35 PM,96.8,66.2,37,29.91,10.0,South,6.9,-,N/A,,Partly Cloudy,170,2013-06-14 21:35:00
4:55 PM,96.8,66.2,37,29.91,10.0,South,8.1,-,N/A,,Partly Cloudy,170,2013-06-14 21:55:00
5:15 PM,96.8,64.4,34,29.90,10.0,SSW,8.1,-,N/A,,Clear,200,2013-06-14 22:15:00
5:35 PM,96.8,62.6,32,29.90,10.0,SE,9.2,-,N/A,,Clear,140,2013-06-14 22:35:00
5:55 PM,96.8,64.4,34,29.90,10.0,SSE,9.2,-,N/A,,Clear,150,2013-06-14 22:55:00
6:15 PM,96.8,62.6,32,29.89,10.0,SE,11.5,-,N/A,,Clear,140,2013-06-14 23:15:00
6:35 PM,96.8,62.6,32,29.89,10.0,SE,8.1,-,N/A,,Clear,130,2013-06-14 23:35:00
6:55 PM,96.8,62.6,32,29.89,10.0,SSE,8.1,-,N/A,,Clear,150,2013-06-14 23:55:00
7:15 PM,95.0,62.6,34,29.90,10.0,SE,9.2,-,N/A,,Clear,140,2013-06-15 00:15:00
7:35 PM,93.2,64.4,38,29.90,10.0,SSE,8.1,-,N/A,,Clear,160,2013-06-15 00:35:00
7:55 PM,91.4,64.4,41,29.91,10.0,SSE,6.9,-,N/A,,Clear,160,2013-06-15 00:55:00
8:15 PM,89.6,64.4,43,29.91,10.0,South,6.9,-,N/A,,Clear,170,2013-06-15 01:15:00
8:35 PM,87.8,64.4,46,29.91,10.0,SSE,5.8,-,N/A,,Clear,150,2013-06-15 01:35:00
8:55 PM,86.0,64.4,48,29.92,10.0,SSE,4.6,-,N/A,,Clear,150,2013-06-15 01:55:00
9:15 PM,84.2,64.4,51,29.92,10.0,SSE,4.6,-,N/A,,Clear,160,2013-06-15 02:15:00
9:35 PM,84.2,64.4,51,29.92,10.0,South,4.6,-,N/A,,Clear,170,2013-06-15 02:35:00
9:55 PM,82.4,64.4,54,29.93,10.0,SSE,4.6,-,N/A,,Clear,160,2013-06-15 02:55:00
10:15 PM,82.4,64.4,54,29.94,10.0,South,4.6,-,N/A,,Clear,180,2013-06-15 03:15:00
10:35 PM,80.6,64.4,58,29.95,10.0,South,3.5,-,N/A,,Clear,170,2013-06-15 03:35:00
10:55 PM,80.6,64.4,58,29.95,10.0,SSE,4.6,-,N/A,,Clear,160,2013-06-15 03:55:00
11:15 PM,80.6,64.4,58,29.96,10.0,SW,5.8,-,N/A,,Clear,220,2013-06-15 04:15:00
11:35 PM,80.6,66.2,61,29.96,10.0,South,6.9,-,N/A,,Clear,170,2013-06-15 04:35:00
11:55 PM,78.8,66.2,65,29.96,10.0,South,4.6,-,N/A,,Clear,190,2013-06-15 04:55:00